Погода в Новоалексеевке

Поиск расширенной информации на нашем сайте:

Полезная информация:

Новости сайта



02.01.2020
Опубликован Долгосрочный прогноз погоды по городам России и ближнего зарубежья на январь 2020 года.
Карты: Прогноз на январь и февраль 2020 года, Сравнение прогнозируемой аномалии приземной температуры воздуха на январь 2020 года по разным моделям.




Погода в Новоалексеевке - сегодня

Время (UTC), дата Ветер
(°,м/с) 
Видим.   Явления Облачность Т
(°С)
Тd
(°С)
f(%) Тe
(°С)
Pmin
(гПа)
dP
(гПа)
Po
(мм)
O2
(г/м3)
Тmin Tmax R s Состояние
почвы
15 20.10.21 300 (СЗ) н/о  {дождь}  10/10 600 м 
[Ns]
+2.9 +1.3 89 +2  1012.8  2.7  746  297    +5.9     
18 20.10.21 290 (З) н/о  {дождь}  9/4 1000 м средняя 
[Sc|Ac trans]
+1.8 -0.4 85 +1  1015  2.1  748  299    +5.9     
21 20.10.21 290 (З) н/о    9/5 600 м средняя 
[Sc|Ac trans]
+2.2 -0.6 82 +1  1016.4  1.4  749  299           
06 21.10.21 300 (СЗ) 10 км    9/6 600 м средняя 
[Sc|Ac trans]
+3.6 -0.8 73 +2  1021.6  1.7  753  299  +1.1         
09 21.10.21 270 (З) 10 км    9/9 600 м 
[Sc]
+5.8 -2.9 54 +5  1021.5  0.1  753  297           
15 21.10.21 240 (ЮЗ) н/о    10/10 600 м 
[Sc]
+4.7 -2.3 60 +3  1020.3  -1  752  298    +6.4       
18 21.10.21 220 (ЮЗ) н/о  слаб. дождь  10/10 600 м 
[Ns]
+2.8 +1.5 91 +1  1019  -1.4  751  299    +6.4       
21 21.10.21 220 (ЮЗ) н/о  слаб. дождь  10/10 600 м 
[Ns]
+2 +0.4 89 -1  1016.5  -2.5  749  299           
06 22.10.21 220 (ЮЗ) 10 км  {дождь}  9/9 1000 м 
[Sc]
+7 -0.2 60 +6  1016.2  749  294  +1.8       
09 22.10.21 240 (ЮЗ) 10 км    3/3 600 м 
[Sc]
+11.6 +3.7 58 +10  1015.5  -0.4  749  289           
15 22.10.21 220 (ЮЗ) н/о    6/4 1000 м средняя 
[Sc|Ac trans]
+10.7 +3.1 59 +10  1016  0.2  749  290    +13.6       
18 22.10.21 230 (ЮЗ) н/о    5/0 средняя 
[Ac trans]
+9.2 +2 61 +8  1017.4  1.2  750  292    +13.6       
21 22.10.21 220 (ЮЗ) н/о    3/0 средняя 
[Ac trans]
+8.5 +3.6 71 +7  1018  0.6  750  293           
06 23.10.21 200 (Ю) 10 км    9/9 600 м 
[Sc]
+9.4 +6.1 80 +9  1020.2  1.7  752  292  +6.6         
09 23.10.21 210 (ЮЗ) 10 км    5/3 1000 м средняя 
[Sc|Ac trans]
+14.9 +6.9 59 +14  1019.5  -0.3  752  286           
15 23.10.21 200 (Ю) н/о    3/0 средняя 
[Ac trans]
+13.3 +5.9 61 +13  1020.5  0.9  752  288    +17.4       
18 23.10.21 170 (Ю) н/о    9/0 средняя 
[Ac trans]
+8.2 +1.6 63 +8  1020.9  752  294    +17.4       
21 23.10.21 180 (Ю) н/о    ясно 
+7.6 +2 68 +9  1020.4  -0.5  752  295           
06 24.10.21 190 (Ю) 10 км    5/0 верхняя 
[Ci fib]
+10.5 -0.2 47 +11  1017.7  -0.4  750  291  +3.1         
09 24.10.21 220 (ЮЗ) 10 км    6/3 1000 м верхняя 
[Sc|Ci fib]
+16.3 +2.6 40 +16  1016.2  -1.1  749  285           
15 24.10.21 320 (СЗ) н/о    9/4 600 м средняя 
[Sc|Ac trans]
+12.5 +8.3 76 +14  1016.3  0.5  749  287    +17.2       
18 24.10.21 340 (С) н/о    10/10 1000 м 
[Sc]
+11.2 +7.5 78 +12  1016.3  -0.1  749  289    +17.2       
21 24.10.21 тихо ()   н/о  слаб. дождь  10/10 600 м 
[Ns]
+10.2 +6.8 79 +10  1015.8  -0.5  749  290           
06 25.10.21 340 (С) 4000 м  слаб. дождь  10/10 600 м 
[Ns]
+6 +5.3 95 +5  1015.4  0.8  748  294  +8.4       
09 25.10.21 310 (СЗ) 10 км  {дождь}  10/10 600 м 
[Sc]
+5.8 +3.7 86 +6  1015.3  -0.1  748  295           
Время (UTC), дата Ветер
(°,м/с) 
Видим.   Явления Облачность Т
(°С)
Тd
(°С)
f(%) Тe
(°С)
Pmin
(гПа)
dP
(гПа)
Po
(мм)
O2
(г/м3)
Тmin Tmax R s Состояние
почвы

Для получения пояснительной информации подведите курсор к названию столбца.

ПОГОДА в Новоалексеевке - архив

Всё, что Вы хотите узнать о погоде в Новоалексеевке - удобно и подробно!

Выберите нужную дату (начиная с 1 января 2019* года) и нажмите кнопку "Найти".
Будут отображены архивные сводки погоды по пункту Новоалексеевка, начиная с указанной даты.


Отображать данные в формате CSV (для использования в таблицах Excel)


Внимание! Наш архив погоды предназначен исключительно для личного некоммерческого использования в познавательных целях. Если Вам необходимы официальные справки о состоянии погоды (для производственных, юридических, коммерческих и т.п. целей), обращайтесь в органы Росгидромета.

*Примечание: данная дата относится к архиву по метеостанциям СССР (Россия, СНГ, Балтия).
Архив по метеостанциям Зарубежной Европы и Азии (кроме Китая) хранится 10 дней, по другим регионам земного шара (Китай, Африка, Америка, Австралия, Океания) - 1 день.

Новоалексеевка - район местоположения метеостанции


Название, широта, долгота, высота метеостанции:
Новоалексеевка 50.1°ш. 55.7°д. 142 м над ур. моря [Казахстан]

Дополнительная информация

В oтличие oт бoльшинства пoгoдных сайтoв мы публикуем пoдрoбную метеoинфoрмацию в детальнoм прoфессиoнальнoм фoрмате.

Характеристики температуры и влажнoсти вoздуха измеряются на высoте 2 м в тени вдали oт зданий и деревьев.
Скoрoсть ветра измеряется на высoте 10 м (на урoвне рoста челoвека скoрoсть ветра ниже в 1.5-2 раза). Если метеoстанция нахoдится в гoрoде или в лесу, тo скoрoсть ветра занижена на 2-4 м/с пo сравнению с oткрытым местoм. Скoрoсть ветра над акватoриями крупных рек и oзёр, а также на вершинах хoлмoв на 2-5 м/с выше, чем в oбычных услoвиях.
Атмoсфернoе давление в разных тoчках местнoсти мoжет значительнo oтличаться oт давления на метеoстанции, в зависимoсти oт услoвий рельефа (при пoдъёме на 10 м давление пoнижается примернo на 1 мм рт.ст.).